Regional Weather Roundup
Issued by NWS

Home | Current Version | Previous Version | Text Only | Print | Product List | Glossary Off
Versions: 1 2 3 4 5 6 7 8 9 10 11 12 13 14 15 16 17 18 19 20 21 22 23 24 25 26 27 28 29 30 31 32 33 34 35 36 37 38 39 40 41 42 43 44 45 46 47 48 49 50

000
ASUS43 KMKX 311400
RWRWI

WISCONSIN REGIONAL WEATHER ROUNDUP
NATIONAL WEATHER SERVICE MILWAUKEE/SULLIVAN WI
900 AM CDT FRI JUL 31 2015

NOTE: "FAIR" INDICATES FEW OR NO CLOUDS BELOW 12,000 FEET WITH NO
SIGNIFICANT WEATHER AND/OR OBSTRUCTIONS TO VISIBILITY.

WIZ001-002-006>008-014>016-023>028-311500-
NORTHWEST WISCONSIN

CITY           SKY/WX    TMP DP  RH WIND       PRES   REMARKS
SUPERIOR ARPT  SUNNY     68  56  64 W10G17    29.98R
ASHLAND        SUNNY     70  56  61 W7        29.96R
HAYWARD        SUNNY     69  54  58 VRB6      30.00S
SIREN          SUNNY     67  54  63 W12       30.03S
CUMBERLAND     SUNNY     64  54  68 W12G18    30.03S
RICE LAKE      SUNNY     66  56  70 W7        30.04R
CHETEK         SUNNY     68  56  65 W7G17     30.02S
LADYSMITH      SUNNY     68  56  65 W10       30.02R
EAU CLAIRE     NOT AVBL
MENOMONIE      SUNNY     70  54  56 W10       30.04S
NEW RICHMOND   SUNNY     69  54  58 W12       30.06S
OSCEOLA        SUNNY     68  55  61 W10       30.08R
$$

WIZ003>005-009-010-017-018-311500-
NORTH CENTRAL WISCONSIN

CITY           SKY/WX    TMP DP  RH WIND       PRES   REMARKS
MANITOWISH WTR SUNNY     65  56  72 NW15G22   29.95S
ARBOR VITAE    SUNNY     67  56  66 NW7G17    29.95S
WOODRUFF       SUNNY     67  56  66 NW7G17    29.95S
RHINELANDER    SUNNY     69  56  62 W10       29.96S
EAGLE RIVER    SUNNY     66  55  66 NW15      29.94S
LAND O LAKES   MOSUNNY   67  55  65 NW8       29.94S
PHILLIPS       SUNNY     66  56  69 NW8       29.98R
TOMAHAWK       MOSUNNY   65  56  75 W9        29.97S
MEDFORD        SUNNY     66  56  70 W12G20    30.00S
MERRILL        NOT AVBL
$$

WIZ029-030-035-036-043>047-311500-
CENTRAL WISCONSIN

CITY           SKY/WX    TMP DP  RH WIND       PRES   REMARKS
WAUSAU         SUNNY     70  56  61 NW14      29.96S
MOSINEE        MOSUNNY   70  57  64 NW13G22   29.99R
MARSHFIELD     SUNNY     71  54  54 NW16G23   30.01R
STEVENS POINT  SUNNY     68  55  63 NW9G17    29.98S
WAUPACA        SUNNY     73  58  59 W15       29.96S
WAUTOMA        NOT AVBL
WISC RAPIDS    SUNNY     72  56  57 NW14      30.00S
CAMP DOUGLAS   NOT AVBL
$$

WIZ011>013-019>022-031-037>040-048>050-311500-
NORTHEAST WISCONSIN

CITY           SKY/WX    TMP DP  RH WIND       PRES   REMARKS
ANTIGO         MOSUNNY   65  58  79 W12G18    29.96R
SHAWANO        SUNNY     72  59  63 W8        29.93S
OCONTO         SUNNY     71  59  65 W10G18    29.89F
STURGEON BAY   SUNNY     72  57  60 W12       29.91F
GREEN BAY      SUNNY     73  61  65 W15G21    29.92F
MANITOWOC      NOT AVBL
APPLETON       MOSUNNY   72  57  60 W14       29.95F
CLINTONVILLE   SUNNY     72  55  56 NW12G18   29.94R
OSHKOSH        SUNNY     74  58  57 W14G24    29.95F
$$

WIZ032>034-041-042-053>061-311500-
SOUTHWEST WISCONSIN

CITY           SKY/WX    TMP DP  RH WIND       PRES   REMARKS
LA CROSSE      SUNNY     75  57  53 W12       30.04R
SPARTA         SUNNY     72  57  60 W7        30.04R
VIROQUA        SUNNY     70  60  70 W8        30.06S
BOSCOBEL       SUNNY     76  63  64 W6        30.05S
PRAIRIE DU CHI SUNNY     75  58  56 NW10      30.06S
PLATTEVILLE    SUNNY     72  67  82 W9        30.07S
$$

WIZ056-057-062-063-064-067-068-311500-
SOUTH CENTRAL WISCONSIN

CITY           SKY/WX    TMP DP  RH WIND       PRES   REMARKS
REEDSBURG      SUNNY     73  60  63 NW8       30.02S
BARABOO/DELLS  SUNNY     73  57  57 W10       30.02S
LONE ROCK      NOT AVBL
MINERAL POINT  SUNNY     73  63  68 W7        30.06S
MADISON        SUNNY     75  61  61 W10       30.01S
MIDDLETON      SUNNY     74  60  63 W12       30.03S
WATERTOWN      SUNNY     72  64  75 W7        29.99S
MONROE         SUNNY     72  63  73 W9        30.05S
JANESVILLE     SUNNY     75  64  69 W8        30.01F
$$

WIZ051-052-058>065-066-070>072-311500-
SOUTHEAST WISCONSIN

CITY           SKY/WX    TMP DP  RH WIND       PRES   REMARKS
MILWAUKEE      MOSUNNY   78  58  49 W9        29.98F
WAUKESHA       SUNNY     73  59  60 W10       30.00F
MILWAUKEE/TIMM SUNNY     75  57  53 W12       29.98F
RACINE         MOSUNNY   76  60  57 W8        30.00F
BURLINGTON     SUNNY     73  60  62 W8        30.00S
KENOSHA        MOSUNNY   76  64  66 W12       30.00S
FOND DU LAC    SUNNY     75  60  59 W13       29.96F
SHEBOYGAN      SUNNY     76  61  59 W6        29.94F
WEST BEND      SUNNY     73  55  53 W13       29.97F
JUNEAU         SUNNY     71  62  73 W8        30.00F
$$

LSZ147-162-311500-
LAKE SUPERIOR

STATION/POSITION TIME  TEMP    WIND        PRES    WAVE
                       AIR SEA DIR/SP/G            HT/PER
                 (UTC) (F)     (DEG/KT/KT) (MB)    (FT/S)
W MID LAKE BUOY  1250   57 52  270/ 12/ 14 1011.5R   2/ 4
DEVILS ISLAND    1300   59     270/ 16/ 19 1012.9R
PORT WING        1340   66     250/ 14/ 18 1014.6R
SAXON HARBOR     1300   67                 1013.2R
$$

LMZ867-665-643>646-311500-
LAKE MICHIGAN

STATION/POSITION TIME  TEMP    WIND        PRES    WAVE
                       AIR SEA DIR/SP/G            HT/PER
                 (UTC) (F)     (DEG/KT/KT) (MB)    (FT/S)
CHAMBERS ISLAND  1300   67     230/  7/ 12 1011.5F
S GREEN BAY BUOY 1300   65 66  250/ 12/ 14 1014.0S
N MID LAKE BUOY  1250   69 68  250/ 14/ 16 1010.3F   2/ 4
NORTHPORT PIER   1300   71     280/  5/ 10 1011.2S
SISTER BAY       1314   74     300/ 15/ 19   N/A
ALGOMA LAKESHORE 1312          270/  6/ 10   N/A
KEWAUNEE LAKESHO 1300   70     280/  7/ 13 1012.4S
SHEBOYGAN LAKESH 1300   72     260/ 10/ 14 1014.0F
PORT WASHINGTON  1300   76     280/  7/ 10 1015.2F
ATWATER BUOY     1300   70 62  260/ 10/ 12 1016.3F
MILWAUKEE LAKESH 1300   73     280/  9/ 12   N/A
KENOSHA   LAKESH 1300   72     280/ 11/ 16 1015.2F
$$

TC  - TEMPERATURE IN CELSIUS
VSB - VISIBILITY IN STATUTE MILES
WCI - WIND CHILL INDEX
HX  - HEAT INDEX




USA.gov is the U.S. government's official web portal to all federal, state and local government web resources and services.